GW3547 Weather Reports


time (UTC)temp
C
wind
direction
speed
KPH
gust
KPH
rain 1hr
cm
rain 24hr
cm
rain mn
cm
humidity
%
barometer
mb
20260507051006 8 81 1.6 6.4 0.00 0.89 0.00 92 1006.4
20260507050505 8 101 0.0 6.4 0.00 0.89 0.00 92 1006.3
20260507050026 8 346 0.0 6.4 0.00 0.89 0.00 92 1006.1
20260507045508 8 266 0.0 9.7 0.00 0.89 0.00 92 1006.1
20260507045007 8 266 1.6 9.7 0.00 0.89 0.00 92 1006.0
20260507044520 8 263 1.6 22.5 0.00 0.89 0.00 92 1006.0
20260507044007 8 29 1.6 22.5 0.00 0.89 0.00 92 1006.3
20260507043507 8 285 3.2 9.7 0.00 0.89 0.00 92 1006.5
20260507043022 8 250 1.6 8.0 0.00 0.89 0.00 92 1006.3
20260507042511 9 288 1.6 9.7 0.00 0.89 0.00 92 1006.4
20260507042010 9 271 1.6 11.3 0.03 0.89 0.00 93 1006.4
20260507041528 9 328 1.6 11.3 0.05 0.89 0.00 93 1006.4
20260507041008 9 254 1.6 6.4 0.08 0.89 0.00 93 1006.2
20260507040506 10 248 1.6 9.7 0.08 0.89 0.00 93 1006.2
20260507040007 10 270 3.2 9.7 0.10 0.89 0.00 93 1006.2
20260507035508 10 101 1.6 9.7 0.13 0.89 0.89 93 1006.1
20260507035005 10 298 1.6 9.7 0.13 0.89 0.89 93 1006.0
20260507034503 10 300 1.6 6.4 0.13 0.89 0.89 93 1006.1
20260507034003 10 263 1.6 6.4 0.13 0.89 0.89 93 1006.2
20260507033502 10 249 1.6 3.2 0.13 0.89 0.89 93 1006.1
20260507033004 10 281 0.0 4.8 0.13 0.89 0.89 93 1006.0
20260507032504 10 284 1.6 6.4 0.13 0.89 0.89 92 1006.1
20260507032003 10 277 1.6 6.4 0.10 0.86 0.86 92 1006.4
20260507031507 11 256 0.0 4.8 0.08 0.84 0.84 92 1006.4
20260507031005 11 258 0.0 4.8 0.05 0.81 0.81 92 1006.3
20260507030504 11 274 1.6 9.7 0.08 0.81 0.81 92 1006.2
20260507030016 11 255 1.6 9.7 0.08 0.79 0.79 92 1006.2
20260507025508 11 301 3.2 8.0 0.08 0.76 0.76 92 1006.2
20260507025003 11 327 1.6 12.9 0.10 0.76 0.76 92 1006.2
20260507024515 12 259 1.6 12.9 0.13 0.76 0.76 92 1005.9
20260507024009 12 278 3.2 8.0 0.15 0.76 0.76 92 1005.7
20260507023502 12 263 1.6 8.0 0.20 0.76 0.76 92 1005.6
20260507023007 12 329 1.6 6.4 0.20 0.76 0.76 92 1005.6
20260507022504 12 252 3.2 11.3 0.20 0.76 0.76 92 1005.5
20260507022003 12 244 0.0 11.3 0.20 0.76 0.76 92 1005.4
20260507021504 12 71 1.6 8.0 0.20 0.76 0.76 92 1005.2
20260507021008 13 306 0.0 8.0 0.20 0.76 0.76 92 1005.1
20260507020504 13 306 0.0 8.0 0.18 0.74 0.74 92 1005.2
20260507020004 13 292 1.6 4.8 0.15 0.71 0.71 91 1005.2
20260507015504 13 223 1.6 4.8 0.13 0.69 0.69 91 1005.2
20260507015008 13 275 1.6 6.4 0.10 0.66 0.66 92 1005.1
20260507014516 14 240 0.0 6.4 0.08 0.64 0.64 93 1005.1
20260507014003 14 256 1.6 4.8 0.05 0.61 0.61 93 1004.9
20260507013507 14 125 0.0 3.2 0.00 0.56 0.56 92 1004.8
20260507013021 14 124 0.0 3.2 0.00 0.56 0.56 92 1004.8
20260507012507 14 122 0.0 3.2 0.00 0.56 0.56 92 1004.7
20260507012006 14 130 0.0 4.8 0.00 0.56 0.56 92 1004.7
20260507011508 14 280 0.0 6.4 0.00 0.56 0.56 92 1004.7
20260507011002 15 283 1.6 6.4 0.00 0.56 0.56 92 1004.7
20260507010503 15 40 1.6 4.8 0.00 0.56 0.56 92 1004.7
20260507010008 15 124 0.0 3.2 0.00 0.56 0.56 92 1004.7
20260507005506 15 124 0.0 3.2 0.00 0.56 0.56 92 1004.7
20260507005006 15 124 0.0 3.2 0.00 0.56 0.56 92 1004.8
20260507004509 15 136 0.0 3.2 0.00 0.56 0.56 92 1004.7
20260507004007 15 136 1.6 6.4 0.00 0.56 0.56 92 1004.7
20260507003508 15 55 1.6 6.4 0.00 0.56 0.56 92 1004.7
20260507003019 15 94 1.6 6.4 0.00 0.56 0.56 92 1004.7
20260507002503 15 335 0.0 4.8 0.00 0.56 0.56 92 1004.7
20260507002008 15 12 0.0 4.8 0.00 0.56 0.56 92 1004.8
20260507001548 15 12 1.6 4.8 0.00 0.56 0.56 92 1004.6
20260507001003 15 152 0.0 8.0 0.00 0.56 0.56 91 1004.6
20260507000507 15 155 0.0 8.0 0.00 0.56 0.56 91 1004.5
20260507000013 15 355 1.6 9.7 0.00 0.56 0.56 91 1004.4
20260506235504 15 129 0.0 9.7 0.00 0.56 0.56 91 1004.5
20260506235006 15 29 0.0 14.5 0.00 0.56 0.56 91 1004.4
20260506234511 15 97 3.2 14.5 0.00 0.56 0.56 91 1004.4
20260506234006 15 94 0.0 8.0 0.00 0.56 0.56 91 1004.5
20260506233507 15 78 1.6 8.0 0.00 0.56 0.56 91 1004.5
20260506233011 15 55 0.0 8.0 0.00 0.56 0.56 91 1004.5
20260506232508 15 63 1.6 6.4 0.00 0.56 0.56 91 1004.6
20260506232009 15 326 0.0 6.4 0.00 0.56 0.56 91 1004.5
20260506231509 15 68 1.6 6.4 0.00 0.56 0.56 91 1004.5
20260506231004 15 287 1.6 6.4 0.00 0.56 0.56 91 1004.4
20260506230511 15 5 1.6 6.4 0.00 0.56 0.56 91 1004.5
20260506230033 15 127 0.0 9.7 0.00 0.56 0.56 91 1004.5
20260506225503 15 360 3.2 9.7 0.00 0.56 0.56 91 1004.5
20260506225006 15 282 0.0 8.0 0.00 0.56 0.56 91 1004.5
20260506224510 15 360 0.0 8.0 0.00 0.56 0.56 91 1004.5
20260506224005 15 51 1.6 12.9 0.00 0.56 0.56 90 1004.6
20260506223506 15 75 4.8 12.9 0.00 0.56 0.56 91 1004.6
20260506223019 15 360 0.0 8.0 0.00 0.56 0.56 91 1004.7
20260506222510 15 98 3.2 11.3 0.00 0.56 0.56 91 1004.6
20260506222005 15 53 1.6 11.3 0.00 0.56 0.56 91 1004.7
20260506221516 15 80 1.6 6.4 0.00 0.56 0.56 91 1004.8
20260506221007 15 40 1.6 6.4 0.00 0.56 0.56 91 1004.8
20260506220507 15 227 0.0 8.0 0.00 0.56 0.56 91 1004.9
20260506220012 15 276 1.6 14.5 0.00 0.56 0.56 91 1004.8
20260506215508 15 49 3.2 14.5 0.00 0.56 0.56 91 1004.8
20260506215011 15 329 3.2 16.1 0.00 0.56 0.56 91 1004.8
20260506214523 15 5 1.6 16.1 0.00 0.56 0.56 91 1004.7
20260506214007 15 23 3.2 14.5 0.03 0.56 0.56 91 1004.8
20260506213513 15 294 1.6 19.3 0.03 0.56 0.56 91 1004.9
20260506213026 15 311 1.6 19.3 0.03 0.56 0.56 91 1004.9
20260506212504 15 5 3.2 19.3 0.05 0.56 0.56 91 1005.0
20260506212009 16 250 4.8 19.3 0.08 0.56 0.56 92 1004.9
20260506211520 16 42 1.6 20.9 0.08 0.56 0.56 92 1005.0
20260506211008 16 61 6.4 20.9 0.08 0.56 0.56 92 1005.0
20260506210512 16 280 0.0 9.7 0.10 0.56 0.56 92 1005.0
20260506210043 16 82 1.6 17.7 0.13 0.56 0.56 92 1005.1
20260506205508 16 322 1.6 17.7 0.13 0.56 0.56 92 1005.1
20260506205012 16 277 0.0 6.4 0.15 0.56 0.56 92 1005.1
20260506204515 16 13 0.0 6.4 0.15 0.56 0.56 92 1005.1
20260506204009 15 343 0.0 6.4 0.13 0.53 0.53 92 1005.2
20260506203511 15 102 1.6 6.4 0.13 0.53 0.53 92 1005.2
20260506203013 15 36 1.6 6.4 0.13 0.53 0.53 91 1005.3
20260506202509 15 61 3.2 14.5 0.10 0.51 0.51 91 1005.4
20260506202010 15 74 1.6 14.5 0.08 0.48 0.48 91 1005.4
20260506201526 15 154 3.2 9.7 0.10 0.48 0.48 91 1005.4
20260506201007 15 5 1.6 9.7 0.10 0.48 0.48 91 1005.4
20260506200506 15 45 0.0 8.0 0.08 0.46 0.46 91 1005.5
20260506200018 16 298 1.6 14.5 0.05 0.43 0.43 91 1005.5
20260506195508 16 108 0.0 14.5 0.05 0.43 0.43 91 1005.5
20260506195009 16 243 0.0 3.2 0.05 0.41 0.41 91 1005.6
20260506194527 16 243 0.0 3.2 0.08 0.41 0.41 91 1005.5
20260506194011 16 243 0.0 4.8 0.08 0.41 0.41 91 1005.5
20260506193507 16 48 0.0 4.8 0.10 0.41 0.41 92 1005.5
20260506193033 16 46 0.0 3.2 0.13 0.41 0.41 92 1005.5
20260506192511 16 46 0.0 4.8 0.15 0.41 0.41 92 1005.6
20260506192010 16 46 0.0 4.8 0.18 0.41 0.41 92 1005.6
20260506191518 16 46 0.0 3.2 0.18 0.38 0.38 92 1005.6
20260506191009 16 46 0.0 4.8 0.20 0.38 0.38 92 1005.9
20260506190509 16 46 0.0 4.8 0.23 0.38 0.38 91 1006.0
20260506190002 16 24 0.0 4.8 0.25 0.38 0.38 91 1006.1
20260506185505 16 112 0.0 6.4 0.28 0.38 0.38 91 1006.1
20260506185002 16 115 1.6 6.4 0.25 0.36 0.36 91 1006.4
20260506184504 16 248 1.6 3.2 0.25 0.33 0.33 91 1006.3
20260506184003 16 248 0.0 3.2 0.28 0.33 0.33 91 1006.5
20260506183503 16 248 0.0 3.2 0.25 0.30 0.30 90 1006.5
20260506183003 16 248 0.0 3.2 0.25 0.28 0.28 90 1006.5
20260506182506 16 265 0.0 3.2 0.23 0.25 0.25 90 1006.5
20260506182002 16 320 0.0 4.8 0.20 0.23 0.23 90 1006.7
20260506181503 16 15 0.0 6.4 0.18 0.20 0.20 90 1006.7
20260506181003 16 134 1.6 6.4 0.15 0.18 0.18 89 1006.8
20260506180503 17 36 0.0 4.8 0.13 0.15 0.15 89 1006.9
20260506180005 17 9 0.0 4.8 0.10 0.13 0.13 88 1006.8
20260506175502 17 291 0.0 4.8 0.08 0.10 0.10 88 1006.8
20260506175003 17 291 0.0 4.8 0.08 0.10 0.10 87 1006.8
20260506174502 17 112 0.0 1.6 0.05 0.08 0.08 86 1006.8
20260506174003 18 112 0.0 4.8 0.03 0.05 0.05 85 1006.8
20260506173506 18 112 0.0 4.8 0.03 0.05 0.05 83 1006.6
20260506173004 19 82 0.0 6.4 0.00 0.03 0.03 78 1006.4
20260506172503 19 175 1.6 11.3 0.00 0.03 0.03 75 1006.3
20260506172003 20 317 1.6 12.9 0.00 0.03 0.03 73 1006.3
20260506171503 20 82 3.2 12.9 0.00 0.03 0.03 72 1006.3
20260506171008 20 10 1.6 11.3 0.00 0.03 0.03 71 1006.2
20260506170502 20 298 1.6 8.0 0.00 0.03 0.03 71 1006.2
20260506170002 20 318 1.6 17.7 0.00 0.03 0.03 71 1006.4
20260506165503 20 32 1.6 17.7 0.00 0.03 0.03 70 1006.3
20260506165003 20 36 1.6 16.1 0.00 0.03 0.03 70 1006.4
20260506164517 20 267 1.6 17.7 0.00 0.03 0.03 71 1006.5
20260506164003 20 60 4.8 17.7 0.00 0.03 0.03 70 1006.5
20260506163503 20 51 4.8 17.7 0.00 0.03 0.03 70 1006.5
20260506163009 20 171 3.2 17.7 0.00 0.03 0.03 72 1006.6
20260506162508 20 64 4.8 12.9 0.00 0.03 0.03 71 1006.7
20260506162003 20 49 1.6 14.5 0.00 0.03 0.03 72 1006.8
20260506161504 20 294 4.8 14.5 0.00 0.03 0.03 72 1006.9
20260506161003 20 267 1.6 4.8 0.00 0.03 0.03 74 1007.1
20260506160503 19 286 0.0 4.8 0.00 0.03 0.03 74 1007.3
20260506160004 19 299 1.6 4.8 0.00 0.03 0.03 74 1007.5
20260506155503 19 355 0.0 6.4 0.00 0.03 0.03 74 1007.6
20260506155003 19 324 1.6 9.7 0.00 0.03 0.03 74 1007.8
20260506154504 19 221 1.6 14.5 0.00 0.03 0.03 73 1007.9
20260506154003 19 186 4.8 14.5 0.00 0.03 0.03 74 1008.0
20260506153503 19 355 3.2 12.9 0.00 0.03 0.03 74 1008.1
20260506153004 19 65 3.2 14.5 0.00 0.03 0.03 74 1008.1
20260506152503 19 80 3.2 14.5 0.00 0.03 0.03 75 1008.1
20260506152003 19 35 4.8 12.9 0.00 0.03 0.03 75 1008.2
20260506151504 19 35 0.0 6.4 0.00 0.03 0.03 76 1008.3
20260506151003 19 105 0.0 14.5 0.00 0.03 0.03 76 1008.2
20260506150503 19 86 1.6 14.5 0.00 0.03 0.03 75 1008.0
20260506150004 19 338 1.6 9.7 0.00 0.03 0.03 76 1008.0
20260506145503 19 60 4.8 9.7 0.00 0.03 0.03 74 1008.1
20260506145003 19 271 3.2 9.7 0.00 0.03 0.03 75 1008.3
20260506144511 20 51 3.2 8.0 0.00 0.03 0.03 75 1008.1
20260506144004 19 262 1.6 11.3 0.00 0.03 0.03 76 1008.0
20260506143504 19 88 3.2 11.3 0.00 0.03 0.03 76 1007.9
20260506143003 18 299 1.6 4.8 0.00 0.03 0.03 78 1008.1
20260506142503 18 281 0.0 4.8 0.00 0.03 0.03 81 1008.0
20260506142002 18 265 1.6 4.8 0.00 0.03 0.03 80 1008.0
20260506141516 17 49 1.6 4.8 0.00 0.03 0.03 81 1008.1
20260506141003 17 252 1.6 6.4 0.00 0.03 0.03 80 1008.0
20260506140504 17 262 1.6 6.4 0.00 0.03 0.03 81 1008.0
20260506140004 17 272 1.6 6.4 0.00 0.03 0.03 81 1008.1
20260506135503 17 293 1.6 6.4 0.00 0.03 0.03 81 1008.1
20260506135003 17 178 1.6 6.4 0.00 0.03 0.03 81 1008.2
20260506134504 17 263 0.0 4.8 0.00 0.03 0.03 81 1008.2
20260506134003 17 256 1.6 6.4 0.00 0.03 0.03 82 1008.2
20260506133504 17 277 1.6 6.4 0.00 0.03 0.03 82 1008.2
20260506133006 17 143 1.6 8.0 0.00 0.03 0.03 82 1008.4
20260506132509 17 117 1.6 12.9 0.00 0.03 0.03 82 1008.4
20260506132005 17 11 1.6 12.9 0.00 0.03 0.03 83 1008.5
20260506131507 17 207 0.0 6.4 0.00 0.03 0.03 83 1008.5
20260506131004 16 84 1.6 8.0 0.00 0.03 0.03 82 1008.5
20260506130506 16 360 0.0 8.0 0.00 0.03 0.03 82 1008.6
20260506130006 16 315 1.6 6.4 0.00 0.03 0.03 82 1008.6
20260506125510 16 262 1.6 6.4 0.00 0.03 0.03 83 1008.6
20260506125005 16 25 0.0 6.4 0.00 0.03 0.03 83 1008.4
20260506124506 16 311 1.6 4.8 0.00 0.03 0.03 83 1008.5
20260506124004 16 68 0.0 4.8 0.00 0.03 0.03 83 1008.5
20260506123503 16 98 1.6 6.4 0.00 0.03 0.03 83 1008.5
20260506123012 16 71 0.0 6.4 0.00 0.03 0.03 84 1008.5
20260506122507 16 42 1.6 6.4 0.00 0.03 0.03 84 1008.6
20260506122005 16 327 0.0 3.2 0.00 0.03 0.03 85 1008.6
20260506121512 16 80 0.0 4.8 0.00 0.03 0.03 85 1008.6
20260506121008 15 40 0.0 4.8 0.00 0.03 0.03 86 1008.7
20260506120505 15 47 0.0 4.8 0.00 0.03 0.03 87 1008.8
20260506120015 15 76 1.6 3.2 0.00 0.03 0.03 88 1008.8
20260506115507 15 76 0.0 8.0 0.00 0.03 0.03 89 1008.9
20260506115005 14 5 1.6 8.0 0.00 0.03 0.03 90 1008.9
20260506114509 14 321 0.0 6.4 0.00 0.03 0.03 92 1009.1
20260506114010 13 42 1.6 6.4 0.00 0.03 0.03 93 1009.1
20260506113508 13 63 0.0 6.4 0.00 0.03 0.03 94 1009.1
20260506113008 13 65 1.6 6.4 0.00 0.03 0.03 95 1009.1
20260506112510 12 73 0.0 6.4 0.00 0.03 0.03 95 1009.2
20260506112005 12 71 1.6 6.4 0.00 0.03 0.03 95 1009.0
20260506111508 11 109 0.0 3.2 0.00 0.03 0.03 95 1009.2
20260506111004 11 110 0.0 6.4 0.00 0.03 0.03 95 1009.2
20260506110504 11 110 1.6 6.4 0.00 0.03 0.03 95 1009.1
20260506110010 10 128 0.0 3.2 0.00 0.03 0.03 95 1009.1
20260506105505 10 128 0.0 1.6 0.00 0.03 0.03 95 1009.2
20260506105005 10 128 0.0 1.6 0.00 0.03 0.03 95 1009.3
20260506104526 10 128 0.0 1.6 0.00 0.03 0.03 95 1009.1
20260506104009 10 128 0.0 1.6 0.00 0.03 0.03 94 1009.2
20260506103505 10 128 0.0 1.6 0.00 0.03 0.03 94 1009.3
20260506103032 10 128 0.0 3.2 0.00 0.03 0.03 94 1009.1
20260506102511 10 128 0.0 3.2 0.00 0.03 0.03 94 1009.0
20260506102008 9 128 0.0 3.2 0.00 0.03 0.03 94 1009.0
20260506101514 9 128 0.0 1.6 0.00 0.03 0.03 94 1009.1
20260506101008 9 128 0.0 3.2 0.00 0.03 0.03 94 1009.2
20260506100506 9 128 0.0 3.2 0.00 0.03 0.03 94 1008.9
20260506100005 9 128 0.0 3.2 0.00 0.03 0.03 94 1008.9
20260506095503 9 128 0.0 1.6 0.00 0.03 0.03 94 1009.0
20260506095004 9 128 0.0 0.0 0.00 0.03 0.03 94 1009.1
20260506094504 9 128 0.0 0.0 0.00 0.03 0.03 94 1009.1
20260506094002 9 128 0.0 0.0 0.00 0.03 0.03 94 1008.9
20260506093503 9 128 0.0 0.0 0.00 0.03 0.03 94 1009.0
20260506093005 9 128 0.0 0.0 0.00 0.03 0.03 94 1009.0
20260506092503 9 128 0.0 0.0 0.00 0.03 0.03 94 1008.9
20260506092003 10 128 0.0 0.0 0.00 0.03 0.03 93 1009.0
20260506091512 10 128 0.0 0.0 0.00 0.03 0.03 93 1009.0
20260506091003 10 128 0.0 0.0 0.00 0.03 0.03 93 1009.0
20260506090504 10 128 0.0 0.0 0.00 0.03 0.03 93 1009.1
20260506090010 10 128 0.0 0.0 0.00 0.03 0.03 93 1009.0
20260506085506 10 128 0.0 0.0 0.00 0.03 0.03 93 1009.0
20260506085004 10 128 0.0 0.0 0.00 0.03 0.03 93 1008.9
20260506084511 10 128 0.0 0.0 0.00 0.03 0.03 94 1009.0
20260506084003 10 128 0.0 0.0 0.00 0.03 0.03 93 1009.1
20260506083504 10 128 0.0 0.0 0.00 0.03 0.03 93 1009.2
20260506083006 10 128 0.0 0.0 0.00 0.03 0.03 93 1009.1
20260506082503 10 128 0.0 0.0 0.00 0.03 0.03 93 1009.2
20260506082004 10 128 0.0 0.0 0.00 0.03 0.03 93 1009.0
20260506081503 10 128 0.0 0.0 0.00 0.03 0.03 93 1008.8
20260506081008 11 128 0.0 0.0 0.00 0.03 0.03 93 1008.9
20260506080505 11 128 0.0 0.0 0.00 0.03 0.03 93 1008.9
20260506073506 11 128 0.0 0.0 0.00 0.03 0.03 94 1008.8
20260506073014 11 128 0.0 0.0 0.00 0.03 0.03 94 1008.8
20260506072510 11 128 0.0 0.0 0.00 0.03 0.03 94 1008.9
20260506072002 11 128 0.0 0.0 0.00 0.03 0.03 94 1008.8
20260506071506 11 128 0.0 0.0 0.00 0.03 0.03 94 1008.7
20260506071005 11 128 0.0 0.0 0.00 0.03 0.03 94 1008.7
20260506070502 11 128 0.0 0.0 0.00 0.03 0.03 94 1008.7
20260506062502 11 128 0.0 1.6 0.03 0.03 0.03 94 1008.3
20260506062006 11 128 0.0 1.6 0.03 0.03 0.03 94 1008.2
20260506061518 11 128 0.0 1.6 0.03 0.03 0.03 94 1008.2
20260506061009 11 128 0.0 3.2 0.03 0.03 0.03 94 1008.2
20260506060502 11 128 0.0 3.2 0.03 0.03 0.03 94 1008.2